ROU1791 MDPC-CYUL

Flight info

Callsign ROU1791
Flight time 3h 48m
Altitude 34000
Route CHUM2T CHUMA DONQU L454 JNFOX SAVIK ISLES PBERG CARTR5
Aircraft A321/M-SDE3FGHIRWY/LB1

Departure

Time 2026-05-04 16:02
Airport Punta Cana International Airport (MDPC)

Arrival

Time 2026-05-04 19:50
Airport Montreal / Pierre Elliott Trudeau International Airport (CYUL)
Time Latitude Longitude Altitude Speed Heading
2026-05-04 15:22 18.56407 -68.36153 50 ft 0 kts 175°
2026-05-04 15:49 18.56425 -68.36154 50 ft 4 kts 186°
2026-05-04 15:49 18.56451 -68.36147 49 ft 4 kts 207°
2026-05-04 15:49 18.56472 -68.36132 48 ft 4 kts 229°
2026-05-04 15:50 18.56485 -68.36108 50 ft 3 kts 262°
2026-05-04 15:50 18.56486 -68.36104 50 ft 1 kts 265°
2026-05-04 15:53 18.56486 -68.36109 50 ft 2 kts 265°
2026-05-04 15:53 18.56484 -68.36132 50 ft 5 kts 266°
2026-05-04 15:54 18.56481 -68.36174 50 ft 7 kts 265°
2026-05-04 15:54 18.56477 -68.36231 50 ft 9 kts 265°
2026-05-04 15:54 18.56472 -68.36302 50 ft 11 kts 266°
2026-05-04 15:54 18.56465 -68.36388 50 ft 13 kts 265°
2026-05-04 15:55 18.56456 -68.36489 50 ft 15 kts 264°
2026-05-04 15:55 18.56465 -68.36592 47 ft 13 kts 297°
2026-05-04 15:55 18.56512 -68.36666 50 ft 11 kts 299°
2026-05-04 15:55 18.56525 -68.36743 50 ft 11 kts 266°
2026-05-04 15:56 18.56516 -68.36839 50 ft 15 kts 265°
2026-05-04 15:56 18.56506 -68.36958 50 ft 18 kts 265°
2026-05-04 15:56 18.56495 -68.37100 50 ft 21 kts 264°
2026-05-04 15:56 18.56481 -68.37248 50 ft 20 kts 264°
2026-05-04 15:57 18.56468 -68.37384 50 ft 18 kts 265°
2026-05-04 15:57 18.56457 -68.37508 50 ft 16 kts 265°
2026-05-04 15:57 18.56448 -68.37619 50 ft 14 kts 265°
2026-05-04 15:57 18.56441 -68.37716 50 ft 12 kts 265°
2026-05-04 15:58 18.56475 -68.37780 50 ft 10 kts 340°
2026-05-04 15:58 18.56549 -68.37787 51 ft 12 kts 358°
2026-05-04 15:58 18.56652 -68.37798 51 ft 16 kts 339°
2026-05-04 15:58 18.56701 -68.37852 49 ft 15 kts 301°
2026-05-04 15:59 18.56742 -68.37948 48 ft 14 kts 294°
2026-05-04 15:59 18.56779 -68.38034 46 ft 13 kts 294°
2026-05-04 15:59 18.56815 -68.38120 50 ft 13 kts 294°
2026-05-04 15:59 18.56853 -68.38210 48 ft 13 kts 296°
2026-05-04 16:00 18.56923 -68.38260 51 ft 11 kts 343°
2026-05-04 16:00 18.56987 -68.38281 52 ft 8 kts 345°
2026-05-04 16:00 18.57030 -68.38267 52 ft 6 kts 45°
2026-05-04 16:00 18.57045 -68.38231 52 ft 5 kts 74°
2026-05-04 16:01 18.57055 -68.38195 52 ft 10 kts 74°
2026-05-04 16:01 18.57121 -68.37954 50 ft 68 kts 74°
2026-05-04 16:01 18.57312 -68.37268 48 ft 124 kts 73°
2026-05-04 16:01 18.57597 -68.36237 51 ft 167 kts 75°
2026-05-04 16:02 18.57929 -68.35075 716 ft 150 kts 76°
2026-05-04 16:02 18.58226 -68.34036 1343 ft 149 kts 79°
2026-05-04 16:02 18.58815 -68.31892 2197 ft 162 kts 75°
2026-05-04 16:03 18.59514 -68.30879 2336 ft 187 kts 36°
2026-05-04 16:03 18.60846 -68.30592 2485 ft 209 kts 358°
2026-05-04 16:03 18.62332 -68.30785 2668 ft 221 kts 355°
2026-05-04 16:03 18.63885 -68.31013 2814 ft 236 kts 354°
2026-05-04 16:04 18.65582 -68.31266 2932 ft 257 kts 354°
2026-05-04 16:04 18.69335 -68.31816 3797 ft 279 kts 353°
2026-05-04 16:04 18.71271 -68.32095 4420 ft 283 kts 354°
2026-05-04 16:05 18.73237 -68.32376 5040 ft 286 kts 354°
2026-05-04 16:05 18.75223 -68.32657 5652 ft 289 kts 354°
2026-05-04 16:05 18.79253 -68.33223 5981 ft 292 kts 355°
2026-05-04 16:06 18.81276 -68.33506 6417 ft 294 kts 355°
2026-05-04 16:06 18.86702 -68.34260 7942 ft 297 kts 354°
2026-05-04 16:07 18.89464 -68.34643 8682 ft 300 kts 354°
2026-05-04 16:07 18.95723 -68.35515 10174 ft 312 kts 353°
2026-05-04 16:08 18.97935 -68.35825 10289 ft 329 kts 353°
2026-05-04 16:08 19.05231 -68.36846 10643 ft 375 kts 352°
2026-05-04 16:09 19.10592 -68.37598 10886 ft 401 kts 352°
2026-05-04 16:09 19.16261 -68.38392 11337 ft 417 kts 352°
2026-05-04 16:10 19.22073 -68.39027 12062 ft 423 kts
2026-05-04 16:11 19.30875 -68.37694 13165 ft 430 kts
2026-05-04 16:11 19.33834 -68.37167 13528 ft 432 kts
2026-05-04 16:12 19.42793 -68.35576 14484 ft 438 kts
2026-05-04 16:12 19.51868 -68.33958 15398 ft 444 kts
2026-05-04 16:13 19.57984 -68.32872 16019 ft 447 kts
2026-05-04 16:13 19.64138 -68.31768 16626 ft 450 kts
2026-05-04 16:14 19.70344 -68.30658 17234 ft 454 kts
2026-05-04 16:14 19.76597 -68.29545 17852 ft 458 kts
2026-05-04 16:15 19.86057 -68.27850 18719 ft 462 kts
2026-05-04 16:16 19.92414 -68.26705 19204 ft 465 kts
2026-05-04 16:16 20.02011 -68.24986 19893 ft 471 kts
2026-05-04 16:17 20.08498 -68.23821 20332 ft 474 kts
2026-05-04 16:18 20.18318 -68.22062 20992 ft 480 kts
2026-05-04 16:18 20.21616 -68.21470 21208 ft 482 kts
2026-05-04 16:19 20.31584 -68.19660 21837 ft 486 kts
2026-05-04 16:19 20.38275 -68.18447 22216 ft 489 kts
2026-05-04 16:20 20.48399 -68.16631 22784 ft 494 kts
2026-05-04 16:20 20.55200 -68.15409 23137 ft 497 kts
2026-05-04 16:21 20.65438 -68.13549 23700 ft 501 kts
2026-05-04 16:22 20.72349 -68.12859 24167 ft 497 kts 355°
2026-05-04 16:22 20.82561 -68.14385 24953 ft 492 kts 349°
2026-05-04 16:23 20.92665 -68.16029 25779 ft 487 kts 349°
2026-05-04 16:24 21.06004 -68.18183 26876 ft 482 kts 349°
2026-05-04 16:25 21.12628 -68.19256 27426 ft 480 kts 348°
2026-05-04 16:26 21.25742 -68.21392 28521 ft 476 kts 348°
2026-05-04 16:26 21.35531 -68.22992 29359 ft 473 kts 348°
2026-05-04 16:27 21.42018 -68.24046 29910 ft 470 kts 347°
2026-05-04 16:28 21.51698 -68.25629 30594 ft 468 kts 347°
2026-05-04 16:28 21.61280 -68.27518 31177 ft 466 kts 343°
2026-05-04 16:29 21.73903 -68.30706 31964 ft 466 kts 343°
2026-05-04 16:30 21.83415 -68.32952 32555 ft 466 kts 343°
2026-05-04 16:31 21.89720 -68.34420 32948 ft 466 kts 343°
2026-05-04 16:31 21.99222 -68.36662 33556 ft 466 kts 343°
2026-05-04 16:32 22.08721 -68.38933 34071 ft 467 kts 343°
2026-05-04 16:33 22.21488 -68.41955 34089 ft 470 kts 343°
2026-05-04 16:34 22.31074 -68.44215 34082 ft 469 kts 343°
2026-05-04 16:35 22.50171 -68.48746 34084 ft 469 kts 343°
2026-05-04 16:36 22.59740 -68.51021 34108 ft 469 kts 342°
2026-05-04 16:37 22.69321 -68.53301 34100 ft 469 kts 342°
2026-05-04 16:38 22.82075 -68.56346 34105 ft 469 kts 342°
2026-05-04 16:39 22.98032 -68.60150 34100 ft 469 kts 342°
2026-05-04 16:40 23.10764 -68.63214 34094 ft 468 kts 342°
2026-05-04 16:41 23.26631 -68.67021 34081 ft 468 kts 342°
2026-05-04 16:43 23.42582 -68.70870 34093 ft 468 kts 342°
2026-05-04 16:43 23.52083 -68.73174 34097 ft 468 kts 342°
2026-05-04 16:45 23.70155 -68.77563 34090 ft 469 kts 342°
2026-05-04 16:46 23.86061 -68.81453 34102 ft 470 kts 341°
2026-05-04 16:47 23.98815 -68.84574 34097 ft 469 kts 341°
2026-05-04 16:48 24.11555 -68.87702 34095 ft 469 kts 341°
2026-05-04 16:49 24.24287 -68.90835 34100 ft 469 kts 341°
2026-05-04 16:50 24.36980 -68.93972 34094 ft 469 kts 341°
2026-05-04 16:51 24.46522 -68.96310 34104 ft 469 kts 341°
2026-05-04 16:52 24.59259 -68.99394 34087 ft 469 kts 341°
2026-05-04 16:53 24.68814 -69.01728 34085 ft 469 kts 341°
2026-05-04 16:54 24.81565 -69.04849 34100 ft 469 kts 340°
2026-05-04 16:55 25.00692 -69.09545 34092 ft 470 kts 341°
2026-05-04 16:56 25.16827 -69.12839 34093 ft 472 kts 342°
2026-05-04 16:57 25.26462 -69.14810 34098 ft 471 kts 342°
2026-05-04 16:58 25.39359 -69.17509 34104 ft 472 kts 341°
2026-05-04 17:00 25.58753 -69.21520 34101 ft 473 kts 341°
2026-05-04 17:01 25.74935 -69.24886 34110 ft 473 kts 341°
2026-05-04 17:02 25.87871 -69.27588 34097 ft 473 kts 341°
2026-05-04 17:03 25.97568 -69.29619 34115 ft 473 kts 342°
2026-05-04 17:03 26.07282 -69.31648 34100 ft 473 kts 342°
2026-05-04 17:04 26.20187 -69.34368 34087 ft 474 kts 342°
2026-05-04 17:05 26.33150 -69.37078 34086 ft 473 kts 342°
2026-05-04 17:06 26.42862 -69.39128 34083 ft 473 kts 342°
2026-05-04 17:07 26.51477 -69.40945 34079 ft 473 kts 342°
2026-05-04 17:07 26.59051 -69.42561 34076 ft 475 kts 343°
2026-05-04 17:08 26.68819 -69.44627 34070 ft 476 kts 343°
2026-05-04 17:09 26.75341 -69.45999 34075 ft 477 kts 343°
2026-05-04 17:09 26.81872 -69.47381 34077 ft 478 kts 343°
2026-05-04 17:10 26.98191 -69.50859 34084 ft 480 kts 343°
2026-05-04 17:11 27.04747 -69.52260 34084 ft 480 kts 343°
2026-05-04 17:12 27.14592 -69.54356 34095 ft 480 kts 343°
2026-05-04 17:13 27.31074 -69.57885 34067 ft 483 kts 343°
2026-05-04 17:14 27.44323 -69.60722 34077 ft 485 kts 343°
2026-05-04 17:15 27.54269 -69.62862 34055 ft 488 kts 343°
2026-05-04 17:16 27.67656 -69.65753 34067 ft 490 kts 343°
2026-05-04 17:17 27.81106 -69.68659 34075 ft 494 kts 342°
2026-05-04 17:18 27.94640 -69.71583 34086 ft 496 kts 342°
2026-05-04 17:19 28.08224 -69.74546 34114 ft 498 kts 342°
2026-05-04 17:20 28.21808 -69.77492 34120 ft 499 kts 342°
2026-05-04 17:20 28.32045 -69.79722 34140 ft 499 kts 342°
2026-05-04 17:21 28.45723 -69.82716 34128 ft 501 kts 342°
2026-05-04 17:22 28.52587 -69.84219 34133 ft 502 kts 342°
2026-05-04 17:23 28.66303 -69.87232 34145 ft 503 kts 342°
2026-05-04 17:24 28.76615 -69.89498 34142 ft 503 kts 342°
2026-05-04 17:25 28.90318 -69.92518 34163 ft 502 kts 342°
2026-05-04 17:26 29.04007 -69.95558 34156 ft 500 kts 342°
2026-05-04 17:27 29.21079 -69.99348 34149 ft 500 kts 342°
2026-05-04 17:28 29.34727 -70.02383 34147 ft 499 kts 342°
2026-05-04 17:29 29.55162 -70.06931 34157 ft 497 kts 341°
2026-05-04 17:31 29.70979 -70.10483 34196 ft 496 kts 341°
2026-05-04 17:32 29.87906 -70.14293 34152 ft 495 kts 341°
2026-05-04 17:33 30.01439 -70.17352 34176 ft 496 kts 341°
2026-05-04 17:34 30.14961 -70.20401 34180 ft 497 kts 341°
2026-05-04 17:35 30.31935 -70.24262 34200 ft 498 kts 339°
2026-05-04 17:36 30.38734 -70.25805 34195 ft 497 kts 339°
2026-05-04 17:36 30.45517 -70.27354 34187 ft 497 kts 339°
2026-05-04 17:37 30.52308 -70.28897 34180 ft 497 kts 339°
2026-05-04 17:37 30.59082 -70.30440 34159 ft 495 kts 339°
2026-05-04 17:38 30.65838 -70.31986 34156 ft 494 kts 339°
2026-05-04 17:38 30.72599 -70.33541 34160 ft 495 kts 339°
2026-05-04 17:39 30.82758 -70.35871 34198 ft 496 kts 339°
2026-05-04 17:39 30.89545 -70.37431 34196 ft 497 kts 340°
2026-05-04 17:40 30.96289 -70.38980 34189 ft 497 kts 340°
2026-05-04 17:40 31.03081 -70.40543 34187 ft 498 kts 340°
2026-05-04 17:41 31.09878 -70.42111 34225 ft 498 kts 340°
2026-05-04 17:41 31.16697 -70.43692 34172 ft 499 kts 340°
2026-05-04 17:42 31.23516 -70.45283 34171 ft 500 kts 340°
2026-05-04 17:42 31.30352 -70.46870 34172 ft 501 kts 341°
2026-05-04 17:43 31.37204 -70.48450 34201 ft 502 kts 341°
2026-05-04 17:43 31.44062 -70.50039 34175 ft 503 kts 341°
2026-05-04 17:44 31.50894 -70.51636 34170 ft 504 kts 340°
2026-05-04 17:44 31.57784 -70.53259 34169 ft 505 kts 340°
2026-05-04 17:45 31.64680 -70.54869 34209 ft 506 kts 340°
2026-05-04 17:45 31.71613 -70.56483 34156 ft 509 kts 339°
2026-05-04 17:46 31.78577 -70.58120 34152 ft 511 kts 339°
2026-05-04 17:46 31.85563 -70.59764 34157 ft 513 kts 339°
2026-05-04 17:47 31.92570 -70.61413 34161 ft 514 kts 340°
2026-05-04 17:47 31.99583 -70.63056 34169 ft 514 kts 339°
2026-05-04 17:48 32.06605 -70.64720 34173 ft 514 kts 339°
2026-05-04 17:48 32.13626 -70.66379 34178 ft 515 kts 339°
2026-05-04 17:49 32.20655 -70.68034 34203 ft 516 kts 338°
2026-05-04 17:49 32.27721 -70.69716 34166 ft 518 kts 338°
2026-05-04 17:50 32.34803 -70.71400 34165 ft 519 kts 338°
2026-05-04 17:50 32.41891 -70.73083 34174 ft 520 kts 338°
2026-05-04 17:51 32.48995 -70.74765 34212 ft 521 kts 337°
2026-05-04 17:51 32.56092 -70.76453 34210 ft 520 kts 336°
2026-05-04 17:52 32.63187 -70.78146 34211 ft 520 kts 336°
2026-05-04 17:52 32.70273 -70.79843 34208 ft 519 kts 336°
2026-05-04 17:53 32.77270 -70.81519 34188 ft 512 kts 336°
2026-05-04 17:53 32.84248 -70.83199 34189 ft 511 kts 336°
2026-05-04 17:54 32.91221 -70.84882 34195 ft 511 kts 336°
2026-05-04 17:54 32.98194 -70.86556 34254 ft 511 kts 336°
2026-05-04 17:55 33.05166 -70.88239 34260 ft 509 kts 338°
2026-05-04 17:55 33.12023 -70.89889 34205 ft 498 kts 338°
2026-05-04 17:56 33.18804 -70.91527 34213 ft 496 kts 338°
2026-05-04 17:56 33.25521 -70.93164 34248 ft 495 kts 338°
2026-05-04 17:57 33.32249 -70.94799 34237 ft 492 kts 338°
2026-05-04 17:57 33.38954 -70.96432 34231 ft 491 kts 338°
2026-05-04 17:58 33.45651 -70.98057 34227 ft 490 kts 338°
2026-05-04 17:58 33.52327 -70.99675 34214 ft 486 kts 338°
2026-05-04 17:59 33.58853 -71.01263 34199 ft 479 kts 338°
2026-05-04 18:00 33.68689 -71.03552 34204 ft 487 kts 345°
2026-05-04 18:00 33.75578 -71.03625 34245 ft 497 kts 351°
2026-05-04 18:01 33.82483 -71.03525 34242 ft 496 kts 351°
2026-05-04 18:01 33.89379 -71.03435 34235 ft 494 kts 351°
2026-05-04 18:02 33.99649 -71.03304 34232 ft 493 kts 351°
2026-05-04 18:02 34.06495 -71.03213 34202 ft 490 kts 352°
2026-05-04 18:03 34.13309 -71.03123 34199 ft 490 kts 351°
2026-05-04 18:03 34.20126 -71.03050 34202 ft 490 kts 351°
2026-05-04 18:04 34.26955 -71.02968 34241 ft 491 kts 352°
2026-05-04 18:05 34.37201 -71.02826 34228 ft 491 kts 352°
2026-05-04 18:05 34.44032 -71.02740 34224 ft 491 kts 352°
2026-05-04 18:06 34.54273 -71.02619 34222 ft 491 kts 352°
2026-05-04 18:06 34.61101 -71.02525 34217 ft 491 kts 352°
2026-05-04 18:07 34.67936 -71.02439 34217 ft 491 kts 352°
2026-05-04 18:07 34.74765 -71.02359 34260 ft 491 kts 352°
2026-05-04 18:08 34.81596 -71.02263 34215 ft 490 kts 352°
2026-05-04 18:08 34.88415 -71.02169 34212 ft 490 kts 352°
2026-05-04 18:09 35.02062 -71.02002 34241 ft 490 kts 352°
2026-05-04 18:10 35.08846 -71.01915 34225 ft 491 kts 352°
2026-05-04 18:10 35.15682 -71.01823 34215 ft 491 kts 352°
2026-05-04 18:11 35.22512 -71.01736 34257 ft 491 kts 352°
2026-05-04 18:11 35.29359 -71.01641 34210 ft 491 kts 352°
2026-05-04 18:12 35.36200 -71.01544 34192 ft 491 kts 352°
2026-05-04 18:12 35.43040 -71.01458 34201 ft 492 kts 352°
2026-05-04 18:13 35.49880 -71.01374 34242 ft 492 kts 352°
2026-05-04 18:14 35.60105 -71.01242 34228 ft 491 kts 352°
2026-05-04 18:14 35.66942 -71.01144 34219 ft 491 kts 352°
2026-05-04 18:15 35.80543 -71.00951 34191 ft 486 kts 352°
2026-05-04 18:16 35.87317 -71.00872 34193 ft 486 kts 352°
2026-05-04 18:16 35.92983 -71.00806 34193 ft 487 kts 352°
2026-05-04 18:17 36.03095 -71.00670 34223 ft 485 kts 352°
2026-05-04 18:18 36.13218 -71.00536 34213 ft 484 kts 352°
2026-05-04 18:18 36.19951 -71.00434 34204 ft 482 kts 353°
2026-05-04 18:19 36.29948 -71.00303 34176 ft 478 kts 352°
2026-05-04 18:19 36.36598 -71.00228 34175 ft 478 kts 352°
2026-05-04 18:20 36.43250 -71.00129 34216 ft 478 kts 352°
2026-05-04 18:20 36.49909 -71.00030 34205 ft 478 kts 352°
2026-05-04 18:21 36.56548 -70.99952 34202 ft 477 kts 352°
2026-05-04 18:21 36.63152 -70.99869 34196 ft 477 kts 352°
2026-05-04 18:22 36.69777 -70.99773 34172 ft 474 kts 352°
2026-05-04 18:22 36.76368 -70.99680 34167 ft 473 kts 352°
2026-05-04 18:23 36.82951 -70.99595 34165 ft 473 kts 352°
2026-05-04 18:23 36.89544 -70.99503 34167 ft 474 kts 352°
2026-05-04 18:24 36.96130 -70.99409 34160 ft 473 kts 352°
2026-05-04 18:24 37.02722 -70.99325 34161 ft 473 kts 352°
2026-05-04 18:25 37.09307 -70.99247 34162 ft 473 kts 352°
2026-05-04 18:25 37.15858 -70.99150 34181 ft 474 kts 352°
2026-05-04 18:26 37.22444 -70.99050 34169 ft 473 kts 352°
2026-05-04 18:26 37.29042 -70.98954 34162 ft 473 kts 352°
2026-05-04 18:27 37.35627 -70.98868 34191 ft 473 kts 352°
2026-05-04 18:27 37.42214 -70.98791 34171 ft 473 kts 352°
2026-05-04 18:28 37.48808 -70.98699 34161 ft 473 kts 352°
2026-05-04 18:28 37.55398 -70.98595 34154 ft 473 kts 352°
2026-05-04 18:29 37.61944 -70.98501 34162 ft 474 kts 352°
2026-05-04 18:29 37.68544 -70.98415 34151 ft 474 kts 352°
2026-05-04 18:30 37.75010 -70.99095 34152 ft 463 kts 343°
2026-05-04 18:30 37.78198 -70.99697 34149 ft 463 kts 343°
2026-05-04 18:31 37.84581 -71.00904 34162 ft 464 kts 343°
2026-05-04 18:31 37.90974 -71.02105 34144 ft 464 kts 343°
2026-05-04 18:32 37.97373 -71.03317 34137 ft 465 kts 343°
2026-05-04 18:32 38.03770 -71.04526 34156 ft 465 kts 343°
2026-05-04 18:33 38.10137 -71.05735 34144 ft 466 kts 344°
2026-05-04 18:33 38.16545 -71.06945 34140 ft 466 kts 343°
2026-05-04 18:34 38.22957 -71.08170 34135 ft 466 kts 343°
2026-05-04 18:34 38.29376 -71.09389 34160 ft 466 kts 344°
2026-05-04 18:35 38.35790 -71.10613 34149 ft 466 kts 344°
2026-05-04 18:35 38.42206 -71.11843 34137 ft 466 kts 344°
2026-05-04 18:36 38.48626 -71.13070 34153 ft 466 kts 345°
2026-05-04 18:36 38.55035 -71.14307 34146 ft 466 kts 345°
2026-05-04 18:37 38.61448 -71.15548 34137 ft 466 kts 345°
2026-05-04 18:37 38.67858 -71.16778 34128 ft 466 kts 345°
2026-05-04 18:38 38.74227 -71.17988 34157 ft 465 kts 345°
2026-05-04 18:38 38.80625 -71.19222 34127 ft 464 kts 345°
2026-05-04 18:39 38.87013 -71.20472 34121 ft 464 kts 345°
2026-05-04 18:39 38.93396 -71.21708 34120 ft 464 kts 345°
2026-05-04 18:40 38.99777 -71.22950 34133 ft 463 kts 345°
2026-05-04 18:40 39.06145 -71.24184 34121 ft 463 kts 345°
2026-05-04 18:41 39.12508 -71.25417 34113 ft 462 kts 345°
2026-05-04 18:41 39.18868 -71.26660 34110 ft 462 kts 345°
2026-05-04 18:42 39.25184 -71.27907 34106 ft 462 kts 345°
2026-05-04 18:42 39.31541 -71.29155 34099 ft 462 kts 345°
2026-05-04 18:43 39.37899 -71.30409 34109 ft 462 kts 345°
2026-05-04 18:43 39.44182 -71.31918 34111 ft 454 kts 338°
2026-05-04 18:44 39.50227 -71.34253 34103 ft 453 kts 338°
2026-05-04 18:44 39.56268 -71.36578 34098 ft 453 kts 338°
2026-05-04 18:45 39.62301 -71.38905 34106 ft 452 kts 338°
2026-05-04 18:45 39.68300 -71.41235 34095 ft 451 kts 338°
2026-05-04 18:46 39.74315 -71.43567 34088 ft 451 kts 338°
2026-05-04 18:46 39.80326 -71.45901 34086 ft 450 kts 338°
2026-05-04 18:47 39.86330 -71.48241 34095 ft 450 kts 338°
2026-05-04 18:47 39.92289 -71.50558 34080 ft 448 kts 338°
2026-05-04 18:48 39.98267 -71.52884 34073 ft 448 kts 338°
2026-05-04 18:48 40.04235 -71.55219 34066 ft 447 kts 338°
2026-05-04 18:49 40.10193 -71.57554 34084 ft 446 kts 338°
2026-05-04 18:49 40.16117 -71.59878 34068 ft 443 kts 338°
2026-05-04 18:50 40.22017 -71.62200 34058 ft 442 kts 338°
2026-05-04 18:50 40.27891 -71.64526 34056 ft 441 kts 338°
2026-05-04 18:51 40.33750 -71.66841 34042 ft 438 kts 338°
2026-05-04 18:51 40.39579 -71.69148 34035 ft 437 kts 338°
2026-05-04 18:52 40.45408 -71.71458 34031 ft 437 kts 338°
2026-05-04 18:52 40.51225 -71.73759 34022 ft 437 kts 338°
2026-05-04 18:53 40.57004 -71.76060 34030 ft 436 kts 338°
2026-05-04 18:53 40.62820 -71.78377 34024 ft 436 kts 338°
2026-05-04 18:54 40.68634 -71.80700 34015 ft 436 kts 338°
2026-05-04 18:54 40.74441 -71.83020 34031 ft 436 kts 338°
2026-05-04 18:55 40.80242 -71.85345 34018 ft 435 kts 339°
2026-05-04 18:55 40.88932 -71.88836 34009 ft 435 kts 339°
2026-05-04 18:56 40.94719 -71.91162 34001 ft 435 kts 339°
2026-05-04 18:56 41.00494 -71.93492 34019 ft 433 kts 339°
2026-05-04 18:57 41.06256 -71.95819 34019 ft 432 kts 339°
2026-05-04 18:57 41.11992 -71.98144 34014 ft 431 kts 339°
2026-05-04 18:58 41.17723 -72.00468 34007 ft 430 kts 339°
2026-05-04 18:58 41.23411 -72.02784 33974 ft 430 kts 339°
2026-05-04 18:59 41.29125 -72.05100 33976 ft 429 kts 339°
2026-05-04 18:59 41.34826 -72.07429 33970 ft 429 kts 339°
2026-05-04 19:00 41.40531 -72.09764 33952 ft 428 kts 339°
2026-05-04 19:00 41.46225 -72.12094 33945 ft 428 kts 339°
2026-05-04 19:01 41.51915 -72.14429 33924 ft 428 kts 339°
2026-05-04 19:01 41.57606 -72.16769 33922 ft 428 kts 339°
2026-05-04 19:02 41.63296 -72.19111 33932 ft 428 kts 339°
2026-05-04 19:02 41.68987 -72.21451 33927 ft 427 kts 339°
2026-05-04 19:03 41.74673 -72.23797 33908 ft 427 kts 339°
2026-05-04 19:03 41.80349 -72.26151 33895 ft 427 kts 339°
2026-05-04 19:04 41.85063 -72.28100 33926 ft 426 kts 339°
2026-05-04 19:04 41.90707 -72.30442 33906 ft 424 kts 339°
2026-05-04 19:05 41.96331 -72.32772 33901 ft 422 kts 339°
2026-05-04 19:05 42.01937 -72.35102 33892 ft 421 kts 339°
2026-05-04 19:06 42.07527 -72.37441 33888 ft 421 kts 339°
2026-05-04 19:06 42.13112 -72.39779 33874 ft 420 kts 339°
2026-05-04 19:07 42.18656 -72.42103 33866 ft 419 kts 339°
2026-05-04 19:07 42.24223 -72.44448 33851 ft 419 kts 339°
2026-05-04 19:08 42.29792 -72.46785 33868 ft 419 kts 339°
2026-05-04 19:08 42.35358 -72.49128 33868 ft 418 kts 339°
2026-05-04 19:09 42.40903 -72.51478 33863 ft 417 kts 339°
2026-05-04 19:09 42.46446 -72.53816 33871 ft 417 kts 339°
2026-05-04 19:10 42.51982 -72.56157 33885 ft 416 kts 338°
2026-05-04 19:10 42.57498 -72.58505 33877 ft 415 kts 338°
2026-05-04 19:11 42.62970 -72.60831 33873 ft 414 kts 338°
2026-05-04 19:11 42.68458 -72.63165 33873 ft 412 kts 338°
2026-05-04 19:12 42.76627 -72.66654 33870 ft 409 kts 338°
2026-05-04 19:13 42.82047 -72.68982 33863 ft 408 kts 338°
2026-05-04 19:13 42.87454 -72.71300 33856 ft 407 kts 338°
2026-05-04 19:14 42.92863 -72.73624 33867 ft 407 kts 338°
2026-05-04 19:14 42.98254 -72.75941 33859 ft 406 kts 338°
2026-05-04 19:15 43.03643 -72.78263 33847 ft 406 kts 338°
2026-05-04 19:15 43.08992 -72.80573 33835 ft 405 kts 338°
2026-05-04 19:16 43.14372 -72.82905 33839 ft 405 kts 338°
2026-05-04 19:16 43.19743 -72.85241 33832 ft 404 kts 338°
2026-05-04 19:17 43.25103 -72.87572 33828 ft 404 kts 338°
2026-05-04 19:17 43.30457 -72.89906 33827 ft 404 kts 338°
2026-05-04 19:18 43.35812 -72.92237 33841 ft 403 kts 338°
2026-05-04 19:18 43.41162 -72.94574 33836 ft 403 kts 338°
2026-05-04 19:19 43.46500 -72.96909 33830 ft 402 kts 338°
2026-05-04 19:19 43.51827 -72.99230 33829 ft 401 kts 338°
2026-05-04 19:20 43.57106 -73.01551 33831 ft 401 kts 338°
2026-05-04 19:20 43.62407 -73.03894 33800 ft 400 kts 337°
2026-05-04 19:21 43.67706 -73.06231 33808 ft 399 kts 338°
2026-05-04 19:21 43.73004 -73.08572 33811 ft 399 kts 338°
2026-05-04 19:22 43.78302 -73.10907 33804 ft 399 kts 338°
2026-05-04 19:22 43.83600 -73.13251 33801 ft 399 kts 338°
2026-05-04 19:23 43.88887 -73.15597 33795 ft 399 kts 337°
2026-05-04 19:23 43.94177 -73.17953 33818 ft 399 kts 337°
2026-05-04 19:24 43.99457 -73.20310 33813 ft 398 kts 337°
2026-05-04 19:24 44.04705 -73.22656 33412 ft 390 kts 337°
2026-05-04 19:24 44.07270 -73.23798 33007 ft 384 kts 337°
2026-05-04 19:25 44.09789 -73.24920 32580 ft 377 kts 337°
2026-05-04 19:25 44.12265 -73.26028 32175 ft 371 kts 337°
2026-05-04 19:25 44.14705 -73.27125 31793 ft 365 kts 337°
2026-05-04 19:25 44.17109 -73.28208 31394 ft 360 kts 337°
2026-05-04 19:26 44.19474 -73.29270 30999 ft 355 kts 337°
2026-05-04 19:26 44.21808 -73.30319 30622 ft 352 kts 337°
2026-05-04 19:26 44.24191 -73.31403 30251 ft 370 kts 337°
2026-05-04 19:26 44.26706 -73.32558 29776 ft 392 kts 337°
2026-05-04 19:27 44.29324 -73.33756 29193 ft 408 kts 338°
2026-05-04 19:27 44.32055 -73.34994 28627 ft 416 kts 338°
2026-05-04 19:27 44.34828 -73.36238 28043 ft 421 kts 338°
2026-05-04 19:27 44.37637 -73.37495 27522 ft 424 kts 338°
2026-05-04 19:28 44.40459 -73.38760 26986 ft 427 kts 338°
2026-05-04 19:28 44.43292 -73.40034 26460 ft 429 kts 338°
2026-05-04 19:28 44.46139 -73.41321 25944 ft 432 kts 338°
2026-05-04 19:28 44.48986 -73.42613 25522 ft 424 kts 338°
2026-05-04 19:29 44.51742 -73.43858 25350 ft 409 kts 338°
2026-05-04 19:29 44.54445 -73.45079 24560 ft 408 kts 338°
2026-05-04 19:29 44.57147 -73.46306 23839 ft 408 kts 338°
2026-05-04 19:29 44.59837 -73.47529 23183 ft 405 kts 338°
2026-05-04 19:30 44.62494 -73.48743 22289 ft 399 kts 338°
2026-05-04 19:30 44.65120 -73.49946 21315 ft 395 kts 338°
2026-05-04 19:30 44.67718 -73.51138 20387 ft 392 kts 338°
2026-05-04 19:30 44.70337 -73.52196 19470 ft 392 kts 344°
2026-05-04 19:31 44.73067 -73.52636 18593 ft 397 kts 350°
2026-05-04 19:31 44.75825 -73.52967 17878 ft 398 kts 350°
2026-05-04 19:31 44.78573 -73.53290 17208 ft 395 kts 349°
2026-05-04 19:31 44.81305 -73.53606 16596 ft 392 kts 349°
2026-05-04 19:32 44.84024 -73.53919 16205 ft 392 kts 349°
2026-05-04 19:32 44.86731 -73.54231 15603 ft 388 kts 350°
2026-05-04 19:32 44.89413 -73.54532 15032 ft 385 kts 350°
2026-05-04 19:32 44.92082 -73.54828 14480 ft 383 kts 350°
2026-05-04 19:33 44.94693 -73.55117 13942 ft 380 kts 350°
2026-05-04 19:33 44.97358 -73.55412 13413 ft 378 kts 350°
2026-05-04 19:33 44.99971 -73.55701 12845 ft 375 kts 349°
2026-05-04 19:33 45.02558 -73.55983 12319 ft 371 kts 349°
2026-05-04 19:34 45.05093 -73.56261 11798 ft 369 kts 349°
2026-05-04 19:34 45.07640 -73.56543 11269 ft 366 kts 349°
2026-05-04 19:34 45.10162 -73.56817 10794 ft 361 kts 349°
2026-05-04 19:34 45.12580 -73.57073 10650 ft 335 kts 349°
2026-05-04 19:35 45.14824 -73.57302 10517 ft 309 kts 348°
2026-05-04 19:35 45.16880 -73.57512 10236 ft 287 kts 348°
2026-05-04 19:35 45.18851 -73.57727 9846 ft 282 kts 347°
2026-05-04 19:35 45.20776 -73.57944 9688 ft 275 kts 347°
2026-05-04 19:36 45.22677 -73.58163 9607 ft 274 kts 347°
2026-05-04 19:36 45.24573 -73.58385 9432 ft 273 kts 347°
2026-05-04 19:36 45.26464 -73.58605 9256 ft 272 kts 347°
2026-05-04 19:36 45.28354 -73.58823 9069 ft 272 kts 348°
2026-05-04 19:37 45.30248 -73.59041 8786 ft 274 kts 348°
2026-05-04 19:37 45.32161 -73.59259 8246 ft 276 kts 348°
2026-05-04 19:37 45.34056 -73.59465 7780 ft 273 kts 349°
2026-05-04 19:37 45.35948 -73.59668 7300 ft 273 kts 349°
2026-05-04 19:38 45.37856 -73.59787 6815 ft 277 kts 358°
2026-05-04 19:38 45.39772 -73.59240 6324 ft 285 kts 15°
2026-05-04 19:38 45.41538 -73.57916 5784 ft 289 kts 31°
2026-05-04 19:38 45.43193 -73.56302 5283 ft 287 kts 30°
2026-05-04 19:39 45.44827 -73.54726 4773 ft 287 kts 30°
2026-05-04 19:39 45.46469 -73.53139 4401 ft 280 kts 30°
2026-05-04 19:39 45.48035 -73.51625 4314 ft 267 kts 30°
2026-05-04 19:39 45.49555 -73.50159 4194 ft 259 kts 30°
2026-05-04 19:40 45.51018 -73.48748 4082 ft 251 kts 30°
2026-05-04 19:40 45.52460 -73.47359 3976 ft 249 kts 30°
2026-05-04 19:40 45.53895 -73.45977 3912 ft 245 kts 30°
2026-05-04 19:40 45.55274 -73.44643 3889 ft 238 kts 30°
2026-05-04 19:41 45.56626 -73.43285 3826 ft 238 kts 37°
2026-05-04 19:41 45.57855 -73.41689 3652 ft 238 kts 40°
2026-05-04 19:41 45.59064 -73.40082 3605 ft 238 kts 40°
2026-05-04 19:41 45.60277 -73.38473 3549 ft 238 kts 37°
2026-05-04 19:42 45.61683 -73.37413 3220 ft 224 kts
2026-05-04 19:42 45.63165 -73.37641 3000 ft 213 kts 329°
2026-05-04 19:42 45.64399 -73.38798 3002 ft 213 kts 317°
2026-05-04 19:42 45.65559 -73.40114 2996 ft 213 kts 316°
2026-05-04 19:43 45.66683 -73.41493 2998 ft 211 kts 307°
2026-05-04 19:43 45.67374 -73.43293 2994 ft 206 kts 285°
2026-05-04 19:43 45.67615 -73.45287 2999 ft 203 kts 269°
2026-05-04 19:43 45.67421 -73.47246 2998 ft 202 kts 252°
2026-05-04 19:44 45.66815 -73.49041 2993 ft 201 kts 236°
2026-05-04 19:44 45.65857 -73.50507 2999 ft 203 kts 225°
2026-05-04 19:44 45.64821 -73.51874 2992 ft 203 kts 225°
2026-05-04 19:44 45.63786 -73.53244 2997 ft 202 kts 225°
2026-05-04 19:45 45.62732 -73.54586 2996 ft 203 kts 224°
2026-05-04 19:45 45.61704 -73.55954 2994 ft 200 kts 226°
2026-05-04 19:45 45.60724 -73.57274 2992 ft 187 kts 225°
2026-05-04 19:45 45.59802 -73.58497 3007 ft 177 kts 225°
2026-05-04 19:46 45.58903 -73.59686 2912 ft 175 kts 225°
2026-05-04 19:46 45.58016 -73.60856 2720 ft 172 kts 225°
2026-05-04 19:46 45.57138 -73.62012 2497 ft 171 kts 225°
2026-05-04 19:46 45.56264 -73.63163 2270 ft 167 kts 225°
2026-05-04 19:47 45.55454 -73.64227 2068 ft 150 kts 226°
2026-05-04 19:47 45.54709 -73.65207 1869 ft 143 kts 225°
2026-05-04 19:47 45.53983 -73.66162 1675 ft 141 kts 225°
2026-05-04 19:47 45.53266 -73.67106 1487 ft 140 kts 226°
2026-05-04 19:48 45.52546 -73.68052 1305 ft 140 kts 224°
2026-05-04 19:48 45.51844 -73.68973 1106 ft 136 kts 226°
2026-05-04 19:48 45.51155 -73.69883 883 ft 135 kts 224°
2026-05-04 19:48 45.50451 -73.70814 694 ft 142 kts 223°
2026-05-04 19:49 45.49723 -73.71778 529 ft 143 kts 221°
2026-05-04 19:49 45.48979 -73.72750 332 ft 146 kts 221°
2026-05-04 19:49 45.48233 -73.73723 142 ft 145 kts 221°
2026-05-04 19:49 45.47548 -73.74612 111 ft 117 kts 223°
2026-05-04 19:50 45.47103 -73.75200 112 ft 61 kts 223°
2026-05-04 19:50 45.46901 -73.75464 108 ft 29 kts 221°
2026-05-04 19:50 45.46734 -73.75592 108 ft 26 kts 194°
2026-05-04 19:50 45.46578 -73.75641 105 ft 20 kts 193°
2026-05-04 19:51 45.46441 -73.75685 104 ft 20 kts 192°
2026-05-04 19:51 45.46330 -73.75718 104 ft 14 kts 191°
2026-05-04 19:51 45.46271 -73.75730 104 ft 12 kts 182°
2026-05-04 19:51 45.46220 -73.75727 103 ft 4 kts 177°
2026-05-04 19:52 45.46188 -73.75725 103 ft 5 kts 176°
2026-05-04 19:52 45.46150 -73.75722 102 ft 6 kts 176°
2026-05-04 19:52 45.46099 -73.75719 102 ft 10 kts 180°
2026-05-04 19:52 45.46055 -73.75808 104 ft 15 kts 266°
2026-05-04 19:53 45.46048 -73.75932 104 ft 9 kts 248°
2026-05-04 19:53 45.46006 -73.75959 103 ft 7 kts 184°
2026-05-04 19:53 45.45933 -73.75955 105 ft 14 kts 176°
2026-05-04 19:53 45.45844 -73.75938 104 ft 11 kts 169°
2026-05-04 19:54 45.45787 -73.75893 105 ft 8 kts 130°
2026-05-04 19:54 45.45760 -73.75845 105 ft 5 kts 128°
2026-05-04 19:54 45.45736 -73.75802 105 ft 8 kts 128°
2026-05-04 19:54 45.45723 -73.75734 105 ft 6 kts 83°
2026-05-04 19:55 45.45736 -73.75662 105 ft 8 kts 75°
2026-05-04 19:55 45.45744 -73.75605 104 ft 4 kts 94°
2026-05-04 19:55 45.45730 -73.75586 104 ft 4 kts 152°
2026-05-04 19:55 45.45692 -73.75586 105 ft 5 kts 188°
2026-05-04 19:56 45.45668 -73.75582 105 ft 3 kts 165°
2026-05-04 19:56 45.45642 -73.75568 104 ft 5 kts 156°
2026-05-04 19:56 45.45623 -73.75554 105 ft 2 kts 154°
2026-05-04 19:56 45.45612 -73.75547 105 ft 3 kts 154°
2026-05-04 19:57 45.45597 -73.75537 105 ft 1 kts 154°
2026-05-04 19:57 45.45591 -73.75533 105 ft 1 kts 154°
2026-05-04 19:57 45.45585 -73.75529 105 ft 1 kts 154°
2026-05-04 19:57 45.45585 -73.75528 105 ft 0 kts 154°
2026-05-04 19:58 45.45584 -73.75528 105 ft 0 kts 154°